Wind_Speed
8 6 5 9 8 8 16 19 3 9 9 13 7 2 11 14 11 3 19 17 25 26 27 27 25 23 20 17 14 13 10 10 9 7 7 7 7 8 9 9 9 9 9 10 10 10 10 11 11
4 7 9 15 8 13 13 12 6 12 14 15 10 9 9 11 8 10 16 20 25 27 29 27 23 22 19 16 13 11 11 10 8 7 8 7 9 9 9 9 9 9 9 9 10 11 13 14 14
7 9 15 7 13 14 10 10 16 13 14 9 6 9 4 6 7 11 12 18 24 23 23 24 22 19 18 15 13 12 11 9 7 8 8 8 10 10 9 9 10 11 11 12 13 14 15 17 18
7 9 13 10 17 8 7 9 15 13 8 2 10 7 5 7 7 5 15 20 21 25 24 22 21 18 16 14 12 10 10 8 9 9 9 10 10 10 10 11 12 14 14 14 14 16 18 19 20
11 15 11 14 18 2 6 8 14 4 9 2 8 7 6 4 9 11 15 16 19 21 22 23 20 17 15 12 11 11 10 9 9 9 10 10 9 10 11 13 13 15 14 14 16 17 17 19 21
14 18 13 14 14 7 7 24 11 9 9 4 13 11 6 8 10 11 12 19 23 16 18 21 18 16 14 12 13 12 9 8 9 8 9 9 9 9 11 12 13 13 13 12 13 14 13 15 17
17 11 16 16 8 5 7 23 5 11 8 4 10 8 6 10 9 11 11 19 12 31 24 21 19 16 14 13 12 10 9 8 8 8 10 9 9 9 8 9 9 9 10 9 9 9 9 11 14
19 12 20 8 8 10 6 3 8 14 4 1 3 2 6 11 9 10 13 18 17 26 28 22 17 14 14 14 12 10 8 7 8 9 9 8 7 7 6 5 3 4 6 5 5 5 7 11 16
13 10 14 11 6 12 14 9 4 6 7 6 2 4 5 14 14 17 15 15 18 17 18 17 14 11 9 6 10 8 7 9 8 9 9 9 6 4 5 2 2 1 2 3 4 5 9 11 15
12 12 16 5 8 3 15 14 15 11 12 9 7 7 16 16 14 15 17 16 16 17 19 15 18 16 12 9 9 6 7 6 6 5 6 5 4 3 5 2 2 4 4 6 8 9 10 12 10
16 14 5 3 21 19 17 8 11 7 8 17 13 17 18 17 15 13 14 15 16 15 15 16 17 18 12 9 8 7 7 6 5 5 5 2 1 2 4 4 6 6 9 6 9 10 8 11 12
13 13 5 4 4 6 5 15 17 34 5 8 15 19 20 16 14 14 13 14 14 12 11 13 13 15 11 9 9 9 7 6 4 0 0 1 3 0 3 5 6 9 8 10 9 10 12 12 13
10 3 4 4 6 14 9 8 21 20 11 14 19 20 18 17 16 15 14 14 13 14 12 12 13 12 12 11 11 10 9 8 7 5 6 6 7 8 4 7 10 11 10 10 11 12 12 14 15
9 9 5 8 9 14 7 3 14 10 14 17 20 19 18 17 16 15 14 14 13 13 13 14 13 13 13 12 12 10 7 3 4 8 8 10 10 13 28 18 12 12 10 10 10 13 15 15 16
5 6 9 10 12 8 6 9 9 8 14 17 18 18 17 15 15 14 14 14 14 13 14 15 15 15 15 16 15 18 13 4 10 12 14 14 18 20 10 15 16 10 9 10 11 13 13 15 18
8 9 10 8 16 6 15 11 9 9 14 18 19 19 17 16 15 13 14 14 14 13 14 15 15 16 15 16 18 9 23 24 14 16 13 13 10 9 9 7 5 12 9 9 10 12 14 15 17
6 13 13 9 15 9 14 13 12 11 14 18 18 18 17 17 15 14 13 14 14 14 15 15 15 17 17 17 12 9 14 17 12 5 3 4 4 5 2 4 6 10 8 10 12 13 15 18 21
16 17 12 13 11 12 11 12 9 12 17 17 19 19 18 16 15 13 12 12 13 13 14 14 17 15 17 15 12 12 10 6 6 4 4 4 1 4 1 5 11 10 9 12 13 16 17 20 23
10 6 10 12 5 10 10 8 11 13 16 17 19 19 19 17 14 12 11 11 13 14 14 18 16 14 9 9 9 8 9 8 8 6 6 2 3 6 9 4 8 10 11 13 16 19 20 20 20
3 5 12 8 9 7 9 10 10 12 15 18 18 17 18 17 14 12 11 12 12 13 14 12 11 11 9 9 10 9 8 8 8 6 2 3 5 5 4 9 9 11 14 17 18 18 19 17 16
4 5 7 10 12 14 10 14 14 11 10 11 14 17 18 19 16 14 14 13 12 13 14 12 12 12 12 12 11 11 10 7 5 1 0 4 4 5 8 10 12 15 16 17 18 17 15 17 17
9 2 8 4 12 14 17 12 17 16 15 13 17 16 16 17 17 16 15 15 14 14 14 14 16 15 12 11 10 9 5 5 4 1 2 3 7 9 11 13 15 16 17 18 17 15 15 15 17
13 4 6 8 13 7 17 9 11 17 15 15 16 17 17 17 18 19 18 18 18 18 18 17 15 12 11 10 8 6 5 4 2 1 4 6 8 11 12 15 16 18 18 17 16 17 15 15 18
4 4 5 7 11 7 15 12 13 13 14 15 16 16 18 20 21 21 21 21 19 18 17 16 14 13 12 11 10 10 8 4 1 3 5 6 10 11 12 14 16 17 18 17 16 16 15 18 18
8 8 7 8 6 9 2 7 12 9 7 10 18 21 21 22 23 24 23 20 19 18 16 16 15 14 13 12 10 8 7 5 1 6 6 9 9 11 13 16 17 17 17 17 17 17 18 18 16
9 12 7 6 7 11 6 7 2 10 3 5 21 22 22 23 24 23 21 19 18 17 17 16 15 14 13 12 11 7 6 10 3 4 6 7 10 12 15 16 17 16 15 16 20 18 18 16 14
5 9 6 5 1 6 11 17 11 6 5 9 19 22 24 25 24 23 21 19 18 18 18 18 16 15 14 12 3 8 10 3 2 4 6 8 10 12 14 15 16 16 16 17 20 19 18 17 17
8 3 4 6 5 9 7 7 0 6 5 9 16 22 24 24 23 22 21 19 19 19 19 19 18 17 13 6 6 4 2 4 3 5 8 11 12 13 14 15 16 16 17 18 20 22 23 22 20
7 9 7 5 3 4 4 2 8 3 2 9 14 22 24 25 24 23 21 21 21 21 21 21 20 16 9 5 1 7 6 6 5 8 10 11 13 14 15 16 17 16 16 18 20 23 22 21 20
10 8 10 5 6 2 3 7 3 4 2 8 11 18 21 24 24 23 22 22 23 24 23 23 19 13 8 6 9 9 8 7 9 10 11 13 14 15 16 17 16 17 18 18 18 22 19 15 14
Wind_Direction
233 243 257 245 240 230 259 252 207 114 83 63 50 90 80 32 353 79 128 150 151 154 157 155 155 151 146 145 146 142 143 140 141 138 130 119 114 111 113 106 92 75 66 62 58 56 52 44 33
204 225 229 258 249 254 243 209 89 76 111 115 71 78 53 67 46 125 144 149 152 154 157 156 158 154 148 148 151 147 150 148 148 142 133 126 122 120 113 97 80 69 64 61 60 56 50 49 45
192 220 251 228 236 257 319 84 110 94 165 128 122 83 70 47 81 137 157 151 155 155 149 156 162 155 149 151 152 154 149 147 148 140 141 137 130 123 106 89 84 84 79 74 70 65 58 56 53
208 213 250 257 256 238 312 106 136 159 125 202 138 118 117 139 149 137 148 162 160 158 156 159 161 153 150 154 152 148 148 151 152 155 148 140 132 113 98 95 95 91 88 83 75 68 62 56 51
221 244 241 224 247 17 134 141 255 226 117 355 174 119 89 143 136 145 152 167 161 155 154 160 155 151 156 155 146 155 157 158 157 153 147 136 125 113 109 105 96 93 89 83 76 68 62 53 43
223 243 243 240 221 175 223 160 210 99 121 163 104 141 117 152 157 161 167 177 161 134 160 154 151 157 157 155 156 161 159 159 158 151 143 135 123 117 115 111 106 97 88 83 78 70 56 46 35
244 222 251 269 86 211 201 98 288 128 154 96 135 142 127 168 187 185 194 192 157 160 164 152 150 158 156 156 158 158 163 163 156 153 147 135 125 123 119 122 117 105 96 89 77 62 48 33 23
237 274 254 253 151 218 112 66 110 78 86 346 95 354 153 175 175 156 177 181 180 188 132 142 153 150 155 163 161 163 162 157 156 157 140 126 114 116 119 114 130 107 93 72 57 32 19 13 10
231 258 251 218 166 258 149 154 123 136 120 339 51 28 108 156 147 137 141 137 127 120 124 131 135 137 132 155 160 163 163 159 149 145 139 106 85 61 16 288 190 82 30 1 352 349 352 16 357
224 229 252 99 5 322 135 143 145 146 150 183 177 123 136 143 146 140 141 139 127 123 123 140 155 147 143 156 151 150 133 123 118 119 140 100 161 196 192 295 299 309 314 328 339 342 358 356 339
218 260 30 236 184 157 182 177 178 181 222 177 165 145 144 140 141 141 135 135 133 138 153 162 160 145 150 156 141 138 129 141 143 146 124 222 92 305 346 302 335 325 317 329 324 322 325 324 333
252 257 298 204 200 68 128 155 205 75 278 86 129 146 143 146 149 145 138 139 145 145 156 163 163 137 149 146 135 135 132 118 94 139 98 290 12 222 307 316 303 315 303 303 310 312 317 324 326
228 219 208 233 144 149 141 147 308 160 155 108 129 142 144 146 152 152 152 152 152 151 162 160 152 150 146 135 131 131 117 150 170 185 237 218 222 227 234 263 299 291 294 303 306 307 307 316 318
200 257 244 185 177 176 198 126 141 81 106 126 136 144 147 152 156 155 157 156 155 158 155 152 154 149 141 144 135 127 111 112 230 238 243 250 257 252 284 271 264 258 289 276 300 301 319 316 313
250 234 189 185 176 169 231 171 69 108 129 137 148 149 151 151 157 160 163 167 163 163 160 157 156 152 153 165 138 120 82 11 291 282 270 260 266 270 257 250 270 278 281 304 304 307 310 312 310
219 241 189 176 186 176 229 136 113 148 151 149 148 149 156 158 162 162 169 172 171 170 170 165 162 163 176 168 170 184 294 261 299 280 269 293 248 243 254 282 278 265 303 308 308 314 312 314 312
206 205 186 150 195 175 218 161 123 156 177 157 154 158 162 163 165 171 175 181 177 179 176 177 168 188 186 193 209 252 251 247 284 174 154 215 212 230 200 245 267 292 305 310 316 311 314 311 310
213 227 158 161 175 196 208 102 134 159 181 171 172 173 170 175 176 173 178 181 186 187 182 179 179 196 209 208 227 216 266 200 173 147 180 136 236 269 266 295 295 305 312 308 305 310 309 307 307
232 192 154 111 150 214 193 144 165 174 187 186 191 185 183 186 177 185 178 175 180 182 184 199 197 208 201 185 185 184 159 160 165 167 166 194 265 309 308 306 311 312 311 307 310 307 306 307 306
265 239 117 125 174 252 198 185 158 180 196 191 198 196 196 192 187 186 184 184 181 182 186 188 176 168 167 166 160 161 168 166 171 169 224 289 305 302 329 308 312 305 309 311 309 303 302 303 307
234 243 155 177 186 229 200 187 181 181 184 208 208 204 204 199 200 193 186 181 179 178 174 167 163 159 156 163 161 159 164 167 156 169 334 292 318 326 326 314 309 309 310 307 305 302 295 301 297
244 138 210 201 191 214 212 233 180 172 184 195 202 208 199 196 193 190 182 172 164 158 158 162 157 161 163 156 169 174 183 179 168 198 284 316 318 320 316 310 310 308 305 303 301 299 287 298 296
118 222 199 201 229 221 200 254 168 239 192 189 186 194 190 184 179 170 165 159 152 150 149 154 156 154 149 152 150 143 144 124 138 308 327 317 310 313 309 308 305 303 301 295 289 287 286 288 295
130 172 218 246 262 269 264 233 165 195 210 173 178 179 175 167 164 160 155 153 152 152 153 153 150 148 142 137 127 130 129 127 173 321 322 312 317 313 310 309 307 300 296 294 287 281 276 287 290
217 225 233 216 237 247 304 291 269 281 141 191 176 178 173 170 166 163 162 162 161 160 157 155 156 150 143 137 131 122 110 87 32 337 324 329 319 314 315 315 313 306 295 287 279 266 282 290 288
211 270 251 284 270 260 145 252 273 37 71 246 171 181 179 179 175 174 174 172 170 168 165 161 164 159 152 141 137 134 313 326 358 299 331 329 319 318 316 315 311 307 296 284 276 270 281 289 276
186 245 328 304 310 279 279 272 170 143 163 202 173 183 185 186 183 183 182 181 180 177 174 172 173 170 161 155 205 304 333 336 246 329 327 315 321 319 311 310 308 303 294 284 275 274 283 285 286
268 32 218 228 254 256 286 248 304 166 200 197 188 188 189 192 190 190 189 188 188 185 180 177 176 175 172 241 292 352 166 204 257 300 311 322 319 314 310 310 308 302 292 293 287 288 288 287 288
179 231 235 304 287 281 297 317 62 33 203 201 211 195 194 199 196 196 196 195 191 187 184 180 178 180 201 255 350 201 203 227 265 290 306 312 309 309 309 308 306 305 298 289 288 284 287 286 283
294 267 212 228 216 215 315 288 141 126 209 192 210 204 203 207 206 202 203 199 194 192 189 185 186 190 212 189 262 212 220 241 271 289 297 302 304 306 308 306 303 301 299 295 291 295 290 289 284
Height
1514 1515 1518 1518 1513 1495 1486 1471 1464 1483 1491 1501 1504 1497 1502 1505 1501 1507 1514 1518 1519 1526 1528 1531 1535 1537 1540 1544 1548 1548 1553 1554 1555 1557 1557 1558 1558 1559 1559 1560 1560 1560 1560 1558 1559 1558 1559 1559 1559
1517 1518 1517 1509 1504 1490 1471 1458 1474 1486 1496 1502 1505 1504 1503 1507 1510 1513 1517 1521 1524 1527 1527 1532 1537 1538 1541 1546 1550 1551 1555 1555 1557 1558 1559 1559 1560 1561 1563 1562 1562 1562 1562 1561 1561 1561 1561 1560 1559
1514 1516 1512 1499 1491 1486 1472 1465 1482 1496 1501 1499 1507 1508 1510 1513 1516 1518 1519 1520 1524 1527 1531 1534 1540 1540 1543 1547 1551 1552 1556 1557 1560 1559 1561 1562 1562 1563 1564 1564 1564 1563 1563 1563 1565 1563 1564 1562 1562
1516 1515 1510 1498 1486 1471 1476 1479 1491 1493 1495 1501 1503 1507 1513 1513 1516 1520 1520 1523 1526 1529 1530 1536 1539 1544 1546 1549 1551 1555 1556 1560 1560 1562 1562 1563 1565 1564 1564 1566 1566 1564 1566 1566 1567 1565 1565 1565 1565
1513 1506 1496 1489 1480 1473 1481 1492 1484 1497 1493 1503 1500 1506 1511 1516 1514 1519 1521 1522 1526 1525 1530 1536 1540 1544 1548 1551 1553 1557 1559 1561 1562 1563 1563 1564 1566 1565 1566 1567 1568 1567 1568 1568 1567 1567 1567 1565 1565
1508 1501 1493 1483 1472 1474 1480 1484 1487 1487 1494 1499 1501 1506 1511 1514 1517 1519 1519 1518 1524 1527 1530 1536 1542 1546 1549 1551 1553 1558 1560 1561 1563 1563 1565 1567 1566 1568 1568 1570 1569 1570 1570 1570 1569 1568 1570 1567 1567
1503 1492 1487 1473 1474 1479 1478 1486 1501 1486 1493 1497 1497 1499 1512 1515 1519 1521 1522 1520 1525 1526 1532 1538 1543 1548 1550 1553 1555 1558 1561 1563 1564 1565 1566 1567 1568 1569 1571 1572 1573 1571 1571 1571 1571 1570 1571 1569 1568
1500 1491 1483 1475 1484 1487 1478 1485 1488 1493 1508 1501 1500 1505 1506 1513 1518 1520 1518 1521 1523 1510 1523 1539 1545 1548 1551 1554 1556 1559 1562 1564 1566 1567 1569 1570 1570 1571 1573 1574 1574 1574 1571 1573 1571 1572 1572 1570 1568
1502 1495 1483 1475 1486 1487 1482 1487 1494 1499 1497 1501 1504 1506 1510 1514 1519 1524 1524 1526 1527 1532 1535 1543 1549 1551 1556 1555 1558 1561 1562 1565 1567 1567 1569 1572 1573 1574 1575 1575 1576 1575 1574 1574 1573 1573 1572 1571 1569
1497 1490 1474 1477 1493 1495 1484 1489 1493 1499 1498 1499 1505 1509 1513 1516 1521 1524 1528 1533 1534 1534 1539 1545 1550 1554 1557 1562 1561 1564 1564 1567 1569 1570 1572 1574 1573 1576 1578 1577 1577 1576 1575 1575 1574 1574 1572 1571 1571
1494 1484 1476 1478 1485 1480 1490 1492 1493 1496 1498 1494 1501 1508 1515 1519 1523 1528 1530 1535 1536 1540 1543 1548 1551 1555 1560 1561 1564 1567 1567 1570 1570 1571 1574 1575 1575 1577 1579 1580 1579 1579 1577 1578 1576 1575 1574 1570 1568
1491 1486 1486 1481 1487 1483 1486 1489 1493 1507 1518 1491 1502 1511 1515 1521 1526 1529 1532 1536 1539 1543 1545 1547 1551 1555 1559 1562 1565 1566 1569 1572 1572 1574 1574 1576 1578 1577 1579 1580 1580 1578 1578 1576 1575 1575 1572 1569 1567
1492 1487 1488 1487 1487 1488 1490 1490 1498 1502 1499 1501 1507 1514 1519 1522 1526 1530 1534 1538 1541 1545 1548 1550 1553 1556 1559 1563 1563 1566 1566 1568 1570 1571 1572 1575 1576 1574 1575 1576 1578 1578 1577 1575 1574 1573 1571 1568 1566
1490 1489 1489 1490 1491 1499 1491 1492 1503 1497 1500 1508 1513 1517 1521 1524 1527 1532 1535 1539 1542 1546 1548 1551 1555 1556 1560 1561 1563 1564 1564 1567 1568 1569 1572 1573 1574 1573 1571 1575 1576 1575 1574 1571 1571 1569 1567 1565 1563
1493 1493 1491 1492 1492 1492 1491 1494 1497 1501 1504 1511 1513 1516 1521 1526 1529 1533 1536 1540 1542 1546 1548 1551 1553 1555 1557 1557 1559 1561 1564 1566 1567 1568 1569 1571 1571 1571 1570 1571 1572 1572 1570 1570 1570 1567 1565 1563 1561
1492 1490 1492 1489 1490 1492 1492 1496 1501 1504 1504 1509 1513 1519 1523 1527 1530 1534 1536 1540 1542 1545 1548 1550 1552 1554 1554 1557 1558 1560 1563 1562 1564 1565 1566 1567 1567 1569 1570 1571 1571 1569 1569 1568 1566 1564 1562 1560 1557
1493 1494 1487 1490 1487 1490 1492 1496 1500 1505 1506 1509 1514 1520 1524 1528 1531 1534 1536 1539 1542 1545 1548 1549 1550 1551 1553 1555 1557 1557 1561 1563 1564 1565 1564 1567 1567 1568 1570 1569 1567 1567 1567 1565 1563 1561 1559 1557 1554
1491 1484 1478 1485 1489 1488 1490 1493 1499 1504 1507 1509 1513 1519 1523 1527 1530 1534 1537 1539 1542 1544 1547 1547 1549 1549 1550 1553 1555 1558 1560 1561 1563 1566 1567 1568 1567 1566 1567 1567 1564 1564 1564 1562 1560 1557 1555 1553 1550
1478 1477 1477 1482 1488 1488 1490 1492 1497 1502 1506 1508 1511 1515 1520 1525 1529 1533 1536 1538 1541 1543 1546 1545 1546 1547 1550 1553 1556 1559 1560 1563 1565 1565 1565 1565 1565 1564 1564 1565 1564 1562 1561 1559 1556 1554 1551 1548 1546
1479 1480 1483 1488 1492 1492 1489 1489 1495 1501 1502 1505 1509 1513 1518 1523 1528 1532 1534 1537 1540 1542 1544 1544 1545 1547 1551 1555 1557 1559 1562 1563 1564 1563 1562 1563 1562 1562 1563 1561 1561 1559 1557 1555 1552 1550 1547 1545 1544
1481 1482 1487 1487 1490 1489 1483 1487 1493 1497 1501 1506 1507 1510 1515 1520 1526 1530 1533 1535 1538 1540 1541 1544 1546 1550 1553 1554 1556 1558 1559 1560 1562 1563 1563 1561 1561 1561 1560 1559 1558 1555 1553 1551 1549 1546 1544 1542 1540
1488 1483 1484 1486 1491 1494 1481 1491 1484 1492 1498 1504 1508 1510 1512 1517 1523 1528 1531 1533 1536 1539 1542 1545 1548 1550 1551 1554 1556 1558 1559 1559 1560 1562 1561 1561 1560 1558 1557 1556 1553 1551 1549 1546 1545 1544 1541 1539 1536
1499 1488 1484 1483 1481 1480 1481 1488 1505 1493 1493 1496 1502 1508 1512 1516 1521 1525 1529 1532 1536 1538 1541 1545 1547 1549 1550 1552 1554 1556 1557 1559 1559 1560 1558 1558 1557 1555 1554 1552 1550 1546 1545 1542 1540 1538 1537 1536 1534
1488 1488 1488 1484 1481 1496 1479 1485 1483 1484 1478 1486 1498 1505 1511 1515 1520 1524 1528 1531 1534 1537 1540 1542 1545 1547 1549 1550 1551 1553 1555 1556 1557 1556 1556 1553 1552 1551 1549 1546 1544 1542 1540 1537 1536 1534 1532 1531 1529
1488 1490 1500 1503 1501 1503 1479 1484 1477 1467 1474 1478 1494 1503 1510 1515 1519 1522 1526 1530 1533 1535 1538 1541 1544 1546 1547 1547 1549 1550 1552 1553 1554 1554 1552 1549 1548 1547 1544 1540 1538 1536 1535 1533 1531 1528 1527 1525 1524
1488 1485 1498 1513 1507 1495 1482 1491 1473 1472 1476 1482 1490 1501 1508 1513 1517 1520 1524 1528 1531 1534 1537 1540 1543 1544 1545 1546 1547 1547 1548 1548 1548 1550 1548 1546 1545 1542 1539 1536 1534 1531 1530 1528 1524 1523 1521 1520 1518
1485 1497 1486 1496 1501 1508 1490 1473 1466 1478 1482 1485 1489 1499 1505 1511 1515 1519 1523 1526 1529 1532 1535 1538 1541 1543 1543 1543 1544 1544 1544 1545 1547 1546 1545 1543 1540 1538 1535 1532 1529 1527 1525 1523 1520 1518 1516 1515 1514
1492 1486 1500 1497 1516 1515 1479 1476 1470 1478 1481 1485 1487 1495 1503 1509 1513 1517 1520 1524 1527 1530 1532 1535 1538 1539 1539 1540 1540 1539 1541 1542 1542 1542 1541 1538 1536 1533 1531 1528 1525 1522 1520 1518 1517 1514 1513 1510 1508
1491 1493 1493 1490 1495 1506 1503 1482 1471 1476 1479 1483 1486 1491 1499 1504 1509 1514 1518 1521 1524 1527 1529 1531 1534 1535 1535 1535 1535 1537 1537 1538 1539 1539 1536 1534 1531 1529 1526 1523 1521 1518 1516 1514 1512 1509 1506 1505 1503
1483 1482 1484 1502 1501 1501 1506 1494 1478 1480 1482 1483 1486 1489 1495 1500 1505 1510 1516 1519 1521 1524 1526 1528 1529 1531 1530 1531 1531 1533 1534 1536 1536 1534 1532 1530 1527 1525 1522 1519 1516 1514 1512 1509 1507 1505 1502 1500 1499